FW4661 Weather Reports


time (UTC)temp
C
wind
direction
speed
KPH
gust
KPH
rain 1hr
cm
rain 24hr
cm
rain mn
cm
humidity
%
barometer
mb
20260505085003 9 323 8.0 17.7 0.00 0.00 0.00 83 1043.9
20260505084003 9 332 4.8 17.7 0.00 0.00 0.00 84 1044.3
20260505083003 9 349 4.8 20.9 0.00 0.00 0.00 84 1044.5
20260505082003 9 321 3.2 6.4 0.00 0.00 0.00 83 1044.5
20260505081003 9 329 3.2 12.9 0.00 0.00 0.00 83 1044.6
20260505080003 9 341 3.2 17.7 0.00 0.00 0.00 83 1044.8
20260505075216 9 348 4.8 17.7 0.00 0.00 0.00 83 1044.6
20260505074003 9 350 4.8 12.9 0.00 0.00 0.00 83 1044.9
20260505073003 9 343 3.2 17.7 0.00 0.00 0.00 83 1045.0
20260505072214 9 358 6.4 17.7 0.00 0.00 0.00 83 1044.8
20260505071004 9 2 4.8 32.2 0.00 0.00 0.00 83 1044.8
20260505070004 9 351 8.0 17.7 0.00 0.00 0.00 82 1045.1
20260505065003 9 360 4.8 12.9 0.00 0.00 0.00 82 1045.1
20260505064003 9 317 3.2 9.7 0.00 0.00 0.00 82 1044.9
20260505063003 9 339 3.2 12.9 0.00 0.00 0.00 82 1045.1
20260505062003 9 324 6.4 20.9 0.00 0.00 0.00 82 1045.0
20260505055003 10 180 1.6 6.4 0.00 0.00 0.00 80 1045.3
20260505051216 10 315 3.2 8.0 0.00 0.00 0.00 80 1045.3
20260505041003 11 18 6.4 16.1 0.00 0.00 0.00 76 1045.5
20260505040004 11 13 8.0 17.7 0.00 0.00 0.00 75 1045.4
20260505035004 11 352 6.4 14.5 0.00 0.00 0.00 74 1045.6
20260505034003 11 347 6.4 29.0 0.00 0.00 0.00 74 1045.6
20260505033003 11 353 4.8 17.7 0.00 0.00 0.00 74 1045.8
20260505032216 11 336 4.8 12.9 0.00 0.00 0.00 74 1045.7
20260505031217 11 342 3.2 14.5 0.00 0.00 0.00 72 1045.8
20260505030004 11 343 6.4 14.5 0.00 0.00 0.00 71 1045.8
20260505025004 11 338 8.0 27.4 0.00 0.00 0.00 72 1045.7
20260505024004 11 71 6.4 17.7 0.00 0.00 0.00 71 1045.8
20260505023003 12 356 6.4 12.9 0.00 0.00 0.00 69 1045.8
20260505022003 12 348 8.0 12.9 0.00 0.00 0.00 69 1045.7
20260505021004 12 304 3.2 12.9 0.00 0.00 0.00 68 1046.1
20260505020004 12 348 3.2 14.5 0.00 0.00 0.00 68 1046.3
20260505015003 13 325 3.2 22.5 0.00 0.00 0.00 68 1046.4
20260505014004 13 343 6.4 14.5 0.00 0.00 0.00 68 1046.9
20260505013003 13 30 3.2 12.9 0.00 0.00 0.00 68 1047.0
20260505012003 13 345 6.4 16.1 0.00 0.00 0.00 68 1047.1
20260505011003 12 320 6.4 12.9 0.00 0.00 0.00 69 1047.1
20260505010004 12 341 4.8 24.1 0.00 0.00 0.00 68 1047.3
20260505005004 12 331 1.6 11.3 0.00 0.00 0.00 69 1047.3
20260505004003 12 209 0.0 6.4 0.00 0.00 0.00 71 1047.8
20260505003003 12 191 3.2 11.3 0.00 0.00 0.00 72 1048.0
20260505002004 11 210 1.6 17.7 0.00 0.00 0.00 73 1048.4
20260505001003 11 238 1.6 12.9 0.00 0.00 0.00 76 1048.4
20260505000003 11 213 6.4 22.5 0.00 0.00 0.00 77 1048.7
20260504235003 11 211 3.2 20.9 0.00 0.00 0.00 78 1049.1
20260504234003 11 218 6.4 20.9 0.00 0.00 0.00 80 1049.0
20260504233003 10 215 3.2 9.7 0.00 0.00 0.00 80 1049.1
20260504232004 10 204 3.2 14.5 0.00 0.00 0.00 81 1049.1
20260504231215 10 234 1.6 14.5 0.00 0.00 0.00 82 1049.2
20260504230216 10 233 3.2 8.0 0.00 0.00 0.00 82 1048.9
20260504225003 10 235 3.2 11.3 0.00 0.00 0.00 83 1049.2
20260504224004 10 208 3.2 24.1 0.00 0.00 0.00 84 1049.2
20260504221004 9 270 27.4 37.0 0.00 0.00 0.00 86 1049.4
20260504214003 9 219 6.4 16.1 0.00 0.00 0.00 86 1049.5
20260504213003 8 210 3.2 11.3 0.00 0.00 0.00 86 1049.4
20260504212003 8 169 3.2 8.0 0.00 0.00 0.00 86 1049.6
20260504211003 8 321 0.0 11.3 0.00 0.00 0.00 87 1049.4
20260504210004 8 281 0.0 4.8 0.00 0.00 0.00 87 1049.7
20260504205003 8 230 0.0 16.1 0.00 0.00 0.00 87 1049.4
20260504204214 8 225 0.0 6.4 0.00 0.00 0.00 87 1049.5
20260504203004 8 216 1.6 12.9 0.00 0.00 0.00 86 1049.5
20260504202003 8 224 0.0 9.7 0.00 0.00 0.00 86 1049.5
20260504201003 8 217 3.2 9.7 0.00 0.00 0.00 87 1049.5
20260504200218 8 221 0.0 6.4 0.00 0.00 0.00 87 1049.6
20260504195004 8 207 0.0 6.4 0.00 0.00 0.00 86 1049.4
20260504194003 8 215 0.0 6.4 0.00 0.00 0.00 86 1049.3
20260504193003 8 232 0.0 6.4 0.00 0.00 0.00 86 1049.1
20260504192003 8 215 3.2 6.4 0.00 0.00 0.00 86 1049.3
20260504191003 9 211 0.0 6.4 0.00 0.00 0.00 86 1049.3
20260504190004 9 202 1.6 9.7 0.00 0.00 0.00 86 1049.3
20260504185004 9 217 0.0 12.9 0.00 0.00 0.00 86 1049.2
20260504184215 9 217 1.6 6.4 0.00 0.03 0.00 86 1049.1
20260504183003 9 196 1.6 3.2 0.00 0.03 0.00 86 1049.0
20260504182003 9 238 0.0 3.2 0.00 0.03 0.00 86 1049.1
20260504181004 9 205 0.0 4.8 0.00 0.03 0.00 86 1049.3
20260504180004 9 222 0.0 16.1 0.00 0.03 0.00 86 1049.2
20260504175003 9 225 0.0 1.6 0.00 0.03 0.00 86 1049.1
20260504174216 9 0 0.0 0.0 0.00 0.03 0.00 86 1049.1
20260504173004 9 292 0.0 3.2 0.00 0.03 0.00 86 1049.2
20260504172003 9 231 0.0 4.8 0.00 0.03 0.00 86 1049.3
20260504171004 9 225 0.0 1.6 0.00 0.03 0.00 86 1049.2
20260504141003 10 225 0.0 1.6 0.00 0.03 0.00 86 1049.9
20260504120218 10 0 0.0 0.0 0.00 0.03 0.00 85 1050.4